Waarnemingen

Advertentie
Mijn weer
Kirkwall, Groot Brittannië (3017): temperatuur & dauwpunt: 15.10.2017 07:00:00 - 21.10.2017 07:00:00 (BST)Kirkwall, Groot Brittannië (3017): temperatuur -20cm & temperatuur -100cm: 15.10.2017 07:00:00 - 21.10.2017 07:00:00 (BST)Kirkwall, Groot Brittannië (3017): windsnelheid & windstoten: 15.10.2017 07:00:00 - 21.10.2017 07:00:00 (BST)Kirkwall, Groot Brittannië (3017): windrichting: 15.10.2017 07:00:00 - 21.10.2017 07:00:00 (BST)Kirkwall, Groot Brittannië (3017): luchtdruk: 15.10.2017 07:00:00 - 21.10.2017 07:00:00 (BST)Kirkwall, Groot Brittannië (3017): zicht: 15.10.2017 07:00:00 - 21.10.2017 07:00:00 (BST)Kirkwall, Groot Brittannië (3017): Zonneschijnduur: 15.10.2017 07:00:00 - 21.10.2017 07:00:00 (BST)Kirkwall, Groot Brittannië (3017): neerslag: 15.10.2017 07:00:00 - 21.10.2017 07:00:00 (BST)
Datum & Tijd tt [°C] td [°C] tt -20cm [°C] tt -100cm [°C] ff [km/u] ff [kn] fx [km/u] fx [kn] dd ppp [hPa] vv [km] sd [min] rr [mm]
21.10.2017 07:00:00 12,0 11,5 - - 39 21 59 32 ZO 995,1 9 0 -
21.10.2017 06:00:00 12,1 11,5 - - 41 22 59 32 ZO 995,1 9 0 -
21.10.2017 05:00:00 12,1 11,7 - - 35 19 52 28 ZO 995,6 9 0 -
21.10.2017 04:00:00 12,1 11,9 - - 31 17 46 25 OZO 996,1 9 - -
21.10.2017 03:00:00 12,1 11,9 - - 29 16 46 25 ZO 996,9 14 0 -
21.10.2017 02:00:00 12,1 12,0 - - 24 13 - - OZO 997,5 10 0 -
21.10.2017 01:00:00 12,1 12,0 - - 28 15 - - ZO 998,1 11 - -
21.10.2017 00:00:00 12,1 12,1 - - 28 15 - - ZZO 998,9 11 0 -
20.10.2017 23:00:00 12,0 12,0 - - 16 9 - - OZO 999,5 1,9 0 -
20.10.2017 22:00:00 11,8 11,3 - - 16 9 - - ZO 1000,0 35 0 -
20.10.2017 21:00:00 11,8 11,8 - - 16 9 - - OZO 1000,2 23 0 0,0
20.10.2017 20:00:00 11,9 11,9 - - 9 5 - - ZO 1000,6 9 0 0,0
20.10.2017 19:00:00 11,8 11,8 - - 11 6 - - ZO 1000,7 6 0 0,0
20.10.2017 18:00:00 12,2 12,0 - - 9 5 - - ZO 1000,7 8 0 0,0
20.10.2017 17:00:00 12,8 12,2 - - 9 5 - - Z 1000,5 13 0 0,0
20.10.2017 16:00:00 13,1 12,2 - - 9 5 - - ZZO 1000,5 14 - 0,0
20.10.2017 15:00:00 14,0 12,1 - - 4 2 - - ZW 1000,0 35 - 0,0
20.10.2017 14:00:00 13,6 13,0 - - 5 3 - - WZW 999,8 40 0 0,0
20.10.2017 13:00:00 13,1 13,1 - - 8 4 - - WZW 999,7 30 0 0,0
20.10.2017 12:00:00 12,3 12,3 - - 9 5 - - WZW 999,3 30 0 0,0
20.10.2017 11:00:00 12,2 12,2 - - 8 4 - - WZW 998,4 8 0 0,6
20.10.2017 10:00:00 12,0 12,0 10,7 11,0 13 7 - - WZW 997,7 9 0 0,6
20.10.2017 09:00:00 12,2 12,2 - - 11 6 - - ZW 996,6 5 - 0,8
20.10.2017 08:00:00 12,4 12,4 - - 15 8 - - Z 995,5 2,0 0 0,2
20.10.2017 07:00:00 12,5 12,5 - - 21 11 - - Z 994,8 1,4 0 0,2
20.10.2017 06:00:00 12,6 12,6 - - 22 12 - - ZZO 994,5 1,0 0 0,4
20.10.2017 05:00:00 12,6 12,6 - - 18 10 - - ZO 994,4 1,8 - 0,6
20.10.2017 04:00:00 12,4 12,4 - - 22 12 - - OZO 995,0 4,3 - 2,0
20.10.2017 03:00:00 12,2 12,2 - - 18 10 - - O 996,0 3,0 0 0,8
20.10.2017 02:00:00 11,9 11,9 - - 15 8 - - O 997,3 6 0 2,6
20.10.2017 01:00:00 11,9 11,9 - - 16 9 - - OZO 998,3 7 - 1,4
20.10.2017 00:00:00 11,9 11,9 - - 18 10 - - OZO 998,9 5 0 0,6
19.10.2017 23:00:00 11,9 11,6 - - 24 13 - - ZO 999,5 5 0 0,2
19.10.2017 22:00:00 12,0 11,6 - - 22 12 - - ZO 1000,1 13 0 0,0
19.10.2017 21:00:00 12,0 11,5 - - 18 10 - - ZZO 1000,3 12 0 0,0
19.10.2017 20:00:00 12,0 11,6 - - 21 11 - - ZZO 1000,2 12 - 0,0
19.10.2017 19:00:00 12,0 12,0 - - 24 13 - - ZO 1000,5 14 - 0,0
19.10.2017 18:00:00 12,1 12,1 - - 18 10 - - ZO 1000,9 9 - 0,0
19.10.2017 17:00:00 12,1 12,1 - - 24 13 - - ZO 1001,5 2,7 0 0,0
19.10.2017 16:00:00 12,2 12,2 - - 26 14 - - ZO 1001,5 2,8 0 0,2
19.10.2017 15:00:00 11,9 11,9 - - 34 18 52 28 ZO 1002,3 3,7 0 0,0
19.10.2017 14:00:00 11,8 11,8 - - 31 17 48 26 ZO 1002,9 3,6 0 0,0
19.10.2017 13:00:00 11,9 11,7 - - 34 18 52 28 ZO 1003,5 3,0 - 0,0
19.10.2017 12:00:00 12,1 11,6 - - 34 18 57 31 ZO 1003,8 12 - 0,0
19.10.2017 11:00:00 11,8 11,5 - - 35 19 52 28 ZO 1004,0 10 - 0,0
19.10.2017 10:00:00 11,8 10,5 10,5 11,0 31 17 46 25 ZO 1004,5 14 - 0,0
19.10.2017 09:00:00 11,7 10,5 - - 29 16 46 25 ZO 1004,7 14 - 0,0
19.10.2017 08:00:00 11,4 10,5 - - 31 17 50 27 ZO 1004,7 16 0 0,0
19.10.2017 07:00:00 11,1 10,1 - - 31 17 48 26 ZO 1005,0 15 - 0,0
19.10.2017 06:00:00 10,8 9,1 - - 35 19 48 26 ZZO 1005,5 22 0 0,0
19.10.2017 05:00:00 10,4 8,3 - - 31 17 - - ZZO 1006,1 29 0 0,0
19.10.2017 04:00:00 9,9 8,1 - - 28 15 - - ZZO 1006,5 30 - 0,0
19.10.2017 03:00:00 9,6 8,4 - - 21 11 - - ZO 1007,3 30 0 0,0
19.10.2017 02:00:00 9,1 7,3 - - 21 11 - - ZZO 1007,8 35 0 0,0
19.10.2017 01:00:00 7,5 6,9 - - 13 7 - - ZO 1008,4 26 - 0,0
19.10.2017 00:00:00 8,7 7,9 - - 8 4 - - OZO 1009,3 24 0 0,0
18.10.2017 23:00:00 9,3 7,3 - - 13 7 - - OZO 1010,3 25 0 0,0
18.10.2017 22:00:00 9,2 6,8 - - 13 7 - - O 1011,0 30 0 0,0
18.10.2017 21:00:00 9,2 6,4 - - 15 8 - - OZO 1011,9 40 0 0,0
18.10.2017 20:00:00 9,0 6,0 - - 16 9 - - O 1012,8 40 0 0,0
18.10.2017 19:00:00 8,9 5,5 - - 21 11 - - OZO 1013,2 45 0 0,0
18.10.2017 18:00:00 8,6 6,4 - - 18 10 - - O 1013,6 45 - 0,0
18.10.2017 17:00:00 8,4 6,4 - - 22 12 - - O 1014,2 50 - 0,0
18.10.2017 16:00:00 9,6 5,6 - - 18 10 - - OZO 1014,8 50 - 0,0
18.10.2017 15:00:00 9,6 6,0 - - 13 7 - - O 1015,6 45 - 0,0
18.10.2017 14:00:00 9,6 5,5 - - 15 8 - - O 1015,9 35 0 0,0
18.10.2017 13:00:00 9,7 5,9 - - 21 11 - - OZO 1016,2 40 0 0,0
18.10.2017 12:00:00 - - - - - - - - - - - - -
18.10.2017 11:00:00 9,6 7,1 - - 18 10 - - O 1016,8 30 0 0,0
18.10.2017 10:00:00 8,7 7,0 10,7 11,0 11 6 - - O 1017,1 21 - 0,0
18.10.2017 09:00:00 7,8 6,3 - - 8 4 - - OZO 1017,3 35 0 0,0
18.10.2017 08:00:00 7,7 5,8 - - 13 7 - - O 1017,1 45 0 0,0
18.10.2017 07:00:00 7,4 7,0 - - 8 4 - - O 1017,1 18 0 0,2
18.10.2017 06:00:00 7,2 6,7 - - 8 4 - - O 1017,0 17 0 0,2
18.10.2017 05:00:00 7,8 5,6 - - 13 7 - - ONO 1016,9 7 - 0,0
18.10.2017 04:00:00 8,3 5,6 - - 11 6 - - ONO 1016,9 30 0 0,0
18.10.2017 03:00:00 8,9 4,5 - - 13 7 - - NO 1017,1 30 0 0,0
18.10.2017 02:00:00 8,8 4,4 - - 13 7 - - NO 1016,9 30 0 0,0
18.10.2017 01:00:00 8,8 4,9 - - 18 10 - - NNO 1016,8 28 - 0,0
18.10.2017 00:00:00 9,3 5,1 - - 22 12 - - N 1016,3 35 - 0,0
17.10.2017 23:00:00 9,1 5,4 - - 21 11 - - N 1016,0 30 0 0,0
17.10.2017 22:00:00 9,0 6,3 - - 22 12 - - N 1015,5 18 - 0,0
17.10.2017 21:00:00 9,1 5,5 - - 28 15 - - NNO 1015,0 22 - 0,0
17.10.2017 20:00:00 9,2 4,2 - - 29 16 50 27 N 1014,2 30 0 0,0
17.10.2017 19:00:00 9,3 5,0 - - 34 18 50 27 N 1013,1 22 - 0,0
17.10.2017 18:00:00 9,7 5,8 - - 37 20 54 29 N 1011,4 18 - 0,0
17.10.2017 17:00:00 9,9 6,7 - - 42 23 61 33 N 1010,1 14 0 0,0
17.10.2017 16:00:00 10,1 7,0 - - 48 26 63 34 N 1008,4 12 - 0,2
17.10.2017 15:00:00 9,5 8,5 - - 44 24 65 35 N 1007,0 3,3 - 0,0
17.10.2017 14:00:00 10,5 7,6 - - 50 27 67 36 N 1005,1 18 - 0,0
17.10.2017 13:00:00 9,9 8,8 - - 52 28 72 39 N 1003,1 11 0 0,0
17.10.2017 12:00:00 10,5 8,8 - - 55 30 74 40 NNO 1000,7 11 0 0,0
17.10.2017 11:00:00 10,8 9,9 - - 48 26 67 36 NNO 998,1 10 0 0,2
17.10.2017 10:00:00 10,6 10,2 10,7 11,0 48 26 61 33 NNO 995,9 6 - 0,2
17.10.2017 09:00:00 11,2 11,2 - - 41 22 52 28 NNO 993,7 7 - 0,4
17.10.2017 08:00:00 11,6 11,6 - - 13 7 - - N 992,0 4,3 - 1,6
17.10.2017 07:00:00 11,7 11,7 - - 9 5 - - NNO 991,0 3,5 0 0,2
17.10.2017 06:00:00 11,3 11,2 - - 4 2 - - ONO 990,4 6 0 1,0
17.10.2017 05:00:00 11,7 11,5 - - 16 9 - - ZZO 990,4 2,9 0 0,6
17.10.2017 04:00:00 11,7 11,4 - - 15 8 - - ZO 990,8 7 0 1,2
17.10.2017 03:00:00 11,7 11,2 - - 18 10 - - ZO 991,6 7 - 0,2
17.10.2017 02:00:00 11,9 11,0 - - 16 9 - - OZO 992,5 10 - 0,0
17.10.2017 01:00:00 12,5 12,4 - - 18 10 - - OZO 993,4 6 - 0,0
17.10.2017 00:00:00 12,3 12,3 - - 24 13 55 30 OZO 994,6 3,2 - 0,0
16.10.2017 23:00:00 10,7 10,7 - - 46 25 74 40 O 996,1 2,4 - 1,8
16.10.2017 22:00:00 10,1 10,0 - - 50 27 80 43 O 998,2 5 - 1,0
16.10.2017 21:00:00 9,7 9,7 - - 48 26 78 42 O 1000,2 3,0 - 2,6
16.10.2017 20:00:00 9,5 9,3 - - 50 27 74 40 O 1002,8 2,7 - 1,4
16.10.2017 19:00:00 9,1 8,7 - - 44 24 63 34 O 1005,3 2,3 0 -
16.10.2017 18:00:00 9,3 7,9 - - 39 21 54 29 O 1007,3 9 - 1,6
16.10.2017 17:00:00 9,8 8,4 - - 35 19 50 27 O 1008,3 11 0 0,0
16.10.2017 16:00:00 9,3 8,1 - - 28 15 - - O 1009,5 23 - 0,4
16.10.2017 15:00:00 9,0 7,8 - - 16 9 - - O 1011,4 50 - 0,4
16.10.2017 14:00:00 9,6 8,3 - - 13 7 - - OZO 1013,4 22 - 0,8
16.10.2017 13:00:00 10,6 8,9 - - 9 5 - - ZZO 1013,8 30 - 0,0
16.10.2017 12:00:00 11,1 9,3 - - 9 5 - - Z 1014,8 35 - 0,0
16.10.2017 11:00:00 10,6 8,7 - - 8 4 - - Z 1015,3 28 - 0,0
16.10.2017 10:00:00 10,2 8,7 11,0 11,0 11 6 - - ZZW 1014,5 35 - 0,0
16.10.2017 09:00:00 9,0 8,2 - - 11 6 - - Z 1013,9 24 0 0,0
16.10.2017 08:00:00 9,7 8,6 - - 9 5 - - ZZW 1014,6 21 0 0,0
16.10.2017 07:00:00 9,3 8,1 - - 13 7 - - ZZW 1014,3 23 0 0,0
16.10.2017 06:00:00 8,9 8,1 - - 15 8 - - Z 1013,8 25 0 0,0
16.10.2017 05:00:00 8,4 7,2 - - 8 4 - - ZW 1013,8 45 - 0,0
16.10.2017 04:00:00 8,5 7,3 - - 5 3 - - WZW 1013,8 26 - 0,0
16.10.2017 03:00:00 8,4 7,4 - - 4 2 - - ZW 1013,5 30 - 0,0
16.10.2017 02:00:00 8,5 7,3 - - 4 2 - - ZZW 1013,4 40 - 0,0
16.10.2017 01:00:00 9,3 7,6 - - 9 5 - - W 1013,3 30 - 0,0
16.10.2017 00:00:00 9,1 7,8 - - 15 8 - - W 1012,4 30 - 0,0
15.10.2017 23:00:00 9,3 8,0 - - 16 9 - - W 1011,7 30 0 0,0
15.10.2017 22:00:00 9,7 7,6 - - 16 9 - - W 1010,9 40 0 0,0
15.10.2017 21:00:00 9,8 7,6 - - 24 13 - - W 1009,8 30 - 0,0
15.10.2017 20:00:00 9,5 7,4 - - 28 15 48 26 W 1008,4 30 0 0,0
15.10.2017 19:00:00 9,8 7,8 - - 31 17 55 30 W 1007,3 10 - 0,0
15.10.2017 18:00:00 10,2 7,8 - - 35 19 61 33 W 1005,6 25 - 0,0
15.10.2017 17:00:00 10,6 8,8 - - 50 27 87 47 W 1002,5 10 - 0,0
15.10.2017 16:00:00 12,4 10,3 - - 68 37 91 49 WZW 999,8 14 - 0,0
15.10.2017 15:00:00 16,4 12,8 - - 35 19 50 27 ZZW 998,1 26 - 0,0
15.10.2017 14:00:00 16,7 13,3 - - 28 15 - - Z 998,5 27 - 0,0
15.10.2017 13:00:00 15,7 13,0 - - 31 17 52 28 Z 998,8 29 - 0,0
15.10.2017 12:00:00 15,6 12,8 - - 34 18 50 27 ZZW 999,0 30 - 0,0
15.10.2017 11:00:00 14,2 12,1 - - 29 16 48 26 ZZW 999,8 22 - 0,0
15.10.2017 10:00:00 14,1 12,1 10,9 11,2 34 18 52 28 ZZW 1000,2 26 0 0,0
15.10.2017 09:00:00 13,8 12,0 - - 35 19 50 27 ZZW 1000,8 18 0 0,0
15.10.2017 08:00:00 13,5 12,0 - - 34 18 48 26 Z 1001,0 12 0 0,4
15.10.2017 07:00:00 13,3 11,9 - - 29 16 46 25 Z 1001,5 13 0 0,2

tt = temperatuur
td = dauwpunt
tt -20cm = temperatuur -20cm
tt -100cm = temperatuur -100cm
ff = windsnelheid
fx = windstoten
dd = windrichting
ppp = luchtdruk
vv = zicht
sd = Zonneschijnduur
rr = neerslag

Weerstations in de omgeving